Home > Weather > Fort Smith > Past weeks

Flag for Canada Weather for the Past 2 Weeks in Fort Smith, Northwest Territories, Canada

Now
-13 °F

Clear.


Feels Like: -29 °F
Forecast: -16 / 1 °F
Wind: 7 mph from North

Location: Fort Smith

Current Time: Feb 10, 2016 at 4:03:34 AM

Latest Report: Feb 10, 2016 at 3:00 AM


Visibility: 15 mi

Pressure: 30.52 "Hg

Humidity: 76%

Dew point: -18 °F

Location of Fort SmithLocation

Historic Weather in Fort Smith — Graph

°F

Fort Smith Temperature Yesterday

Maximum temperature yesterday: 9 °F (at 3:00 PM)
Minimum temperature yesterday: -4 °F (at 2:00 AM)
Average temperature yesterday: 4 °F

High & Low Weather Summary for the Past Weeks

 TemperatureHumidityPressure
High28 °F (Jan 28, 9:00 PM)100% (Jan 28, 1:00 PM)30.52 "Hg (Jan 28, 1:00 PM)
Low-18 °F (Feb 5, 2:00 AM)65% (Feb 7, 3:00 PM)29.08 "Hg (Jan 28, 8:00 PM)
Average3 °F84%29.92 "Hg
* Reported Jan 26 3:00 AM — Feb 10 3:00 AM, Fort Smith, Weather by CustomWeather, © 2016

Note: Actual official high and low records may vary slightly from our data, if they occured in-between our weather recording intervals... More about our weather records

Advertising

Fort Smith Weather History for the Previous 24 Hours

 ConditionsComfort  
Time TempWeatherWind HumidityBarometerVisibility
3:00 AM
Wed, Feb 10
-13 °FClear.7 mph76%30.52 "Hg15 mi
2:00 AM-11 °FClear.7 mph84%30.49 "Hg15 mi
1:00 AM-9 °FClear.7 mph84%30.46 "Hg15 mi
12:00 AM-6 °FClear.3 mph84%30.42 "Hg15 mi
11:00 PM
Tue, Feb 9
-2 °FPassing clouds.9 mph77%30.38 "Hg15 mi
10:00 PM0 °FPassing clouds.9 mph84%30.35 "Hg15 mi
9:00 PM3 °FPassing clouds.12 mph85%30.32 "Hg15 mi
8:00 PM7 °FPassing clouds.6 mph85%30.29 "Hg15 mi
7:00 PM7 °FLight snow. Passing clouds.6 mph85%30.27 "Hg15 mi
6:00 PM5 °FLight snow. Passing clouds.3 mph85%30.24 "Hg12 mi
5:00 PM7 °FLight snow. Partly sunny.7 mph85%30.22 "Hg12 mi
4:00 PM9 °FLight snow. Partly sunny.9 mph85%30.19 "Hg1 mi
3:00 PM9 °FLight snow. Ice fog.7 mph85%30.18 "Hg1 mi
2:00 PM7 °FLight snow. Ice fog.5 mph85%30.17 "Hg1 mi
1:00 PM7 °FLight snow. Low clouds.3 mph85%30.18 "Hg1 mi
12:00 PM5 °FLight snow. Low clouds.5 mph85%30.19 "Hg5 mi
11:00 AM5 °FLow clouds.5 mph85%30.20 "Hg15 mi
10:00 AM3 °FLow clouds.5 mph85%30.21 "Hg15 mi
9:00 AM3 °FLow clouds.5 mph85%30.23 "Hg15 mi
8:00 AM3 °FOvercast.5 mph85%30.25 "Hg15 mi
7:00 AM3 °FLight snow. Overcast.2 mph85%30.28 "Hg15 mi
6:00 AM3 °FLight snow. Passing clouds.3 mph85%30.29 "Hg15 mi
5:00 AM3 °FLight snow. Passing clouds.5 mph85%30.30 "Hg15 mi
4:00 AM3 °FPassing clouds.2 mph85%30.32 "Hg15 mi
Weather by CustomWeather, © 2016

See weather overviewHow to use our weather pages